Regional Weather Roundup
Issued by NWS

Home | Current Version | Previous Version | Graphics & Text | Print | Product List | Glossary On
Versions: 1 2 3 4 5 6 7 8 9 10 11 12 13 14 15 16 17 18 19 20 21 22 23 24 25 26 27 28 29 30 31 32 33 34 35 36 37 38 39 40 41 42 43 44 45 46 47 48 49 50
000
ASUS43 KMKX 230759
RWRWI

WISCONSIN REGIONAL WEATHER ROUNDUP
NATIONAL WEATHER SERVICE MILWAUKEE/SULLIVAN WI
200 AM CST TUE JAN 23 2018

NOTE: "FAIR" INDICATES FEW OR NO CLOUDS BELOW 12,000 FEET WITH NO
SIGNIFICANT WEATHER AND/OR OBSTRUCTIONS TO VISIBILITY.

WIZ001-002-006>008-014>016-023>028-230900-
NORTHWEST WISCONSIN

CITY           SKY/WX    TMP DP  RH WIND       PRES   REMARKS
SUPERIOR ARPT  CLOUDY    18  11  74 N9        29.92R WCI   7
ASHLAND        CLOUDY    20  17  88 N13       29.88R WCI   7
HAYWARD        CLOUDY    21  17  84 N10       29.82R WCI  10
SIREN          CLOUDY    21  14  73 N8        29.86R WCI  12
CUMBERLAND     CLOUDY    23  18  80 N13G22    29.78R WCI  11
RICE LAKE      CLOUDY    24  21  87 N12G29    29.79R WCI  13
CHETEK         FLURRIES  23  20  87 N9G20     29.77R WCI  13
LADYSMITH      LGT SNOW  23  19  87 N14G29    29.74R WCI  10
EAU CLAIRE     NOT AVBL
MENOMONIE      LGT SNOW  26  22  86 NW15G21   29.76R WCI  13
NEW RICHMOND   CLOUDY    24  18  77 N20       29.82R WCI   9
OSCEOLA        CLOUDY    24  17  73 N14       29.87R WCI  12
$$

WIZ003>005-009-010-017-018-230900-
NORTH CENTRAL WISCONSIN

CITY           SKY/WX    TMP DP  RH WIND       PRES   REMARKS
MANITOWISH WTR LGT SNOW  19  19  98 N12G20    29.70R WCI   7
ARBOR VITAE    LGT SNOW  22  19  89 N17G31    29.66S WCI   7
WOODRUFF       LGT SNOW  22  19  89 N17G31    29.66S WCI   7
RHINELANDER    LGT SNOW  21  18  88 N14G22    29.63R FOG     WCI   8
EAGLE RIVER      N/A     20  18  91 N10G21    29.64R WCI   9
LAND O LAKES   CLOUDY    20  18  89 N16G24    29.67S WCI   6
PHILLIPS       LGT SNOW  20  18  92 N13G20    29.69S WCI   8
TOMAHAWK       LGT SNOW  21  17  86 N13G18    29.65R WCI   9
MEDFORD        LGT SNOW  22  18  85 N17G23    29.64R WCI   8
MERRILL        LGT SNOW  23  19  86 N15G24    29.63R WCI  10
$$

WIZ029-030-035-036-043>047-230900-
CENTRAL WISCONSIN

CITY           SKY/WX    TMP DP  RH WIND       PRES   REMARKS
WAUSAU         LGT SNOW  23  21  92 N9G18     29.59R VSB 1   WCI  13
MOSINEE        LGT SNOW  25  23  93 N14G22    29.60S WCI  13
MARSHFIELD     LGT SNOW  24  21  88 N13       29.61S FOG     WCI  12
STEVENS POINT  MIX PCPN  25  25  99 N9        29.59S WCI  16
WAUPACA        FLURRIES  31  27  85 NW10      29.57R WCI  22
WAUTOMA        FLURRIES  29  26  89 N15       29.58R WCI  18
WISC RAPIDS    NOT AVBL
CAMP DOUGLAS   CLOUDY    28  26  91 NW13      29.62R WCI  18
$$

WIZ011>013-019>022-031-037>040-048>050-230900-
NORTHEAST WISCONSIN

CITY           SKY/WX    TMP DP  RH WIND       PRES   REMARKS
ANTIGO         CLOUDY    23  20  87 N16       29.57S WCI  10
SHAWANO        CLOUDY    30  26  84 N10G20    29.57R WCI  21
OCONTO         CLOUDY    28  24  88 N8        29.55R WCI  19
STURGEON BAY   FLURRIES  26  24  92 N25G32    29.52R WCI  11
GREEN BAY      CLOUDY    29  25  85 N18G26    29.54R WCI  16
MANITOWOC      MIX PCPN  28  26  92 N23G30    29.49R WCI  14
APPLETON       CLOUDY    28  28 100 N14G21    29.52R WCI  17
CLINTONVILLE   LGT SNOW  30  27  86 N12G17    29.57R WCI  21
OSHKOSH        CLOUDY    29  25  85 N17G24    29.54R WCI  17
$$

WIZ032>034-041-042-053>061-230900-
SOUTHWEST WISCONSIN

CITY           SKY/WX    TMP DP  RH WIND       PRES   REMARKS
LA CROSSE      LGT SNOW  29  26  89 N14       29.70R FOG     WCI  18
SPARTA         CLOUDY    28  25  87 N12       29.67R WCI  18
VIROQUA        CLOUDY    28  28 100 N16G23    29.61R WCI  16
BOSCOBEL       CLOUDY    33  32  96 N14G23    29.62R WCI  23
PRAIRIE DU CHI CLOUDY    33  28  85 N12       29.63R WCI  24
PLATTEVILLE    CLOUDY    32  32 100 N13       29.57R WCI  22
$$

WIZ056-057-062-063-064-067-068-230900-
SOUTH CENTRAL WISCONSIN

CITY           SKY/WX    TMP DP  RH WIND       PRES   REMARKS
REEDSBURG      CLOUDY    30  29  98 N9        29.57R WCI  22
BARABOO/DELLS  CLOUDY    30  28  95 N8        29.56R WCI  22
LONE ROCK      NOT AVBL
MINERAL POINT  CLOUDY    32  32 100 N12G18    29.55R WCI  23
MADISON        CLOUDY    30  28  92 N10       29.55R WCI  21
MIDDLETON      CLOUDY    32  30  93 N10       29.55R WCI  24
WATERTOWN      LGT SNOW  30  30 100 N10       29.50S WCI  21
MONROE         FLURRIES  32  32 100 N10       29.52R WCI  24
JANESVILLE     LGT SNOW  32  32 100 NW7       29.52R WCI  26
$$

WIZ051-052-058>065-066-070>072-230900-
SOUTHEAST WISCONSIN

CITY           SKY/WX    TMP DP  RH WIND       PRES   REMARKS
MILWAUKEE      LGT SNOW  34  33  96 N8        29.48R FOG     WCI  27
WAUKESHA       LGT SNOW  30  30 100 NW13G22   29.49R WCI  20
MILWAUKEE/TIMM LGT SNOW  32  30  93 N12G18    29.49R WCI  23
RACINE         LGT SNOW  33  33 100 SW3       29.51R VSB 1
BURLINGTON     LGT SNOW  32  31  95 CALM      29.49R VSB 3/4
KENOSHA        LGT SNOW  33  31  92 W6        29.49R FOG     WCI  28
FOND DU LAC    CLOUDY    30  26  85 N16       29.54R WCI  19
SHEBOYGAN      MIX PCPN  29  28  96 N18G25    29.50R WCI  16
WEST BEND      CLOUDY    30  30 100 NW15      29.49R FOG     WCI  19
JUNEAU         CLOUDY    29  28  96 N15G22    29.53R WCI  17
$$

LSZ147-162-230900-
LAKE SUPERIOR

STATION/POSITION TIME  TEMP    WIND        PRES    WAVE
                       AIR SEA DIR/SP/G            HT/PER
                 (UTC) (F)     (DEG/KT/KT) (MB)    (FT/S)
DEVILS ISLAND    0700   21      40/ 18/ 20 1012.7R
SAXON HARBOR     0740   23      30/ 16/ 22 1010.8R
$$

LMZ867-665-643>646-230900-
LAKE MICHIGAN

STATION/POSITION TIME  TEMP    WIND        PRES    WAVE
                       AIR SEA DIR/SP/G            HT/PER
                 (UTC) (F)     (DEG/KT/KT) (MB)    (FT/S)
NORTHPORT PIER   0740   26      10/  7/ 10 1000.7S
KEWAUNEE LAKESHO 0730   27     340/ 15/ 19  998.7R
SHEBOYGAN LAKESH 0700   32     340/ 19/ 22  998.1R
PORT WASHINGTON  0730   32     310/  7/ 11 1000.0R
MILWAUKEE LAKESH 0730   33     320/  4/  6   N/A
KENOSHA   LAKESH 0700   33     240/  5/  7  999.0
$$

TC  - TEMPERATURE IN CELSIUS
VSB - VISIBILITY IN STATUTE MILES
WCI - WIND CHILL INDEX
HX  - HEAT INDEX





USA.gov is the U.S. government's official web portal to all federal, state and local government web resources and services.